Location: Bodelshofen
(48.6660°N, 9.4103°E)
Time: 21:28:46
(UTC+00:00)

Daily predictions for brighter satellites

Satellite Brightness Start Highest point End
(mag) Time Altitude Azimuth Time Altitude Azimuth Time Altitude Azimuth
Cosmos 2237 Rocket 2.8 17:02:00 10° NNW 17:07:13 36° NE 17:12:26 10° ESE
Cosmos 1802 Rocket 4.1 17:00:46 10° N 17:07:14 86° E 17:13:40 10° S
IRS-P3 4.1 17:02:12 10° SSE 17:07:27 66° ENE 17:12:46 10° N
Cosmos 2285 Rocket 4.4 17:02:46 10° NNW 17:08:56 45° ENE 17:15:01 10° SE
Cosmos 2233 Rocket 4.1 17:07:10 10° N 17:13:24 63° ENE 17:19:39 10° SSE
Cosmos 2219 Rocket 3.9 17:08:35 10° NW 17:13:44 39° WSW 17:18:52 10° S
SJ-6B 4.3 17:14:54 10° E 17:16:37 13° ENE 17:18:19 10° NNE
CARTOSAT-1 4.3 17:14:57 10° SE 17:18:39 30° ENE 17:22:21 10° N
Cosmos 1867 3.8 17:13:17 10° SW 17:18:43 75° NW 17:24:12 10° NE
USA 267 3.4 17:13:42 10° NE 17:20:16 78° NNW 17:26:48 10° WSW
Cosmos 1725 Rocket 4.2 17:14:37 10° N 17:20:54 84° W 17:27:10 10° S
Aureole 3 Rocket 3.4 17:18:33 10° N 17:22:13 30° ENE 17:25:12 10° SE
SJ-12 4.3 17:19:34 10° S 17:23:20 63° WSW 17:27:08 10° NNW
NOSS 0 Rocket 3.9 17:17:39 10° NNW 17:23:56 76° ENE 17:30:10 10° SE
Cosmos 2322 4.0 17:19:38 10° NNW 17:25:22 78° WSW 17:31:04 10° SSE
Cosmos 192 4.3 17:21:05 10° NNW 17:26:00 90° W 17:30:52 10° SSE
SL-08 R/B 4.5 17:21:14 10° N 17:27:27 88° E 17:33:32 10° S
Cosmos 2151 Rocket 3.6 17:26:40 10° N 17:31:12 90° SE 17:35:41 10° S
SL-16 R/B 3.5 17:27:37 10° N 17:31:52 21° NE 17:35:24 13° E
Cosmos 1814 Rocket 4.2 17:27:15 10° SSW 17:32:32 77° WNW 17:37:48 10° NNE
Cosmos 2227 Rocket 3.5 17:29:45 10° SE 17:33:27 18° E 17:36:56 11° ENE
SAR-Lupe-1 4.1 17:31:32 10° SSE 17:35:05 85° WSW 17:38:41 10° NNW
Cosmos 1607 4.0 17:31:51 10° SW 17:37:59 85° NW 17:44:14 10° NE
Cosmos 1315 Rocket 3.4 17:34:37 10° NNW 17:38:21 57° W 17:42:05 10° S
ATLAS 5 CENTAUR R/B 3.8 17:34:33 10° WNW 17:38:30 32° WSW 17:43:14 10° S
Cosmos 1125 Rocket 3.4 17:33:27 10° NNW 17:38:40 74° ENE 17:43:51 10° SSE
Cosmos 2061 Rocket 4.0 17:32:15 10° N 17:38:40 82° E 17:44:59 10° S
SL-16 R/B 4.2 17:36:36 10° N 17:42:00 33° WNW 17:47:25 10° WSW
ARIANE 6 FM1 Upper Stage 4.3 17:40:06 10° NNW 17:42:55 18° NNE 17:44:44 14° NE
Cosmos 1455 Rocket 3.4 17:39:03 10° N 17:43:07 40° ENE 17:47:10 10° SE
CZ-4C R/B 1.8 17:39:38 10° SW 17:43:53 83° NW 17:49:23 10° NE
NOSS 3-3 (C) 3.7 17:39:12 10° SSW 17:44:23 74° SE 17:50:36 10° NE
Cosmos 1975 Rocket 4.2 17:41:27 10° SE 17:44:47 22° E 17:48:08 10° NE
BREEZE-M DEB (TANK) 3.4 17:41:19 10° WNW 17:45:33 74° SSW 17:52:50 10° ESE
USA 306 3.4 17:43:33 10° WNW 17:46:01 27° SW 17:47:42 10° SSE
YAOGAN 1 2.5 17:42:00 10° SSE 17:46:15 89° WSW 17:50:32 10° NNW
Cosmos 158 Rocket 4.4 17:42:36 10° SW 17:47:24 60° WNW 17:52:14 10° NNE
SeaSat 1 3.4 17:43:27 10° S 17:48:12 52° WSW 17:53:00 10° NW
SAR-Lupe-4 4.5 17:47:47 10° S 17:51:16 52° W 17:54:47 10° NNW
Cosmos 1464 Rocket 4.4 17:45:51 10° N 17:51:48 39° ENE 17:57:39 10° SE
NOAA 6 4.0 17:49:01 10° SSE 17:54:08 70° ENE 17:59:17 10° N
Spot 4 Rocket 4.0 17:49:36 10° SSE 17:54:43 86° ENE 17:59:51 10° NNW
COSMO-SKYMED 1 2.3 17:52:08 10° NNE 17:56:15 73° ESE 18:00:21 10° S
CZ-4 R/B 3.3 17:58:01 12° NE 17:58:01 12° NE 17:58:45 10° NNE
Cosmos 2228 3.6 17:52:56 10° N 17:56:42 31° ENE 18:00:28 10° SE
PSLV R/B 3.3 17:52:44 10° SSE 17:56:51 75° ENE 18:00:57 10° N
Okean 1 Rocket 3.3 17:53:02 10° NNW 17:57:26 75° W 18:01:47 10° S
USA 234 4.4 17:51:57 10° SSE 17:58:07 43° SW 18:04:19 10° WNW
Cosmos 2221 Rocket 3.6 17:55:12 10° S 17:59:40 90° NW 18:04:12 10° N
Okean 2 Rocket 3.6 17:55:25 10° NNW 17:59:46 61° W 18:04:03 10° S
ARIANE 5 R/B 4.5 17:55:58 10° SSW 18:00:32 32° W 18:05:04 10° NNW
SPOT 5 3.8 18:00:21 20° E 18:02:24 27° ENE 18:06:38 10° N
Cosmos 773 Rocket 4.3 17:58:14 10° S 18:03:09 42° ESE 18:08:07 10° NE
BREEZE-M (TANK) 2.9 18:04:42 10° W 18:07:15 60° SSW 18:12:02 15° ESE
Radarsat Rocket 4.1 18:01:58 10° SSE 18:07:49 79° WSW 18:14:10 10° NNW
CZ-2D R/B 4.0 18:06:16 10° S 18:10:07 56° W 18:14:04 10° NNW
NOSS 3-3 (A) 4.0 18:06:51 10° SW 18:12:04 69° NW 18:18:19 10° NE
Sich 1 Rocket 4.4 18:08:28 10° NNW 18:12:56 56° W 18:17:23 10° S
CSL-04 Rocket 4.1 18:11:33 20° ESE 18:14:31 36° ENE 18:19:19 10° N
IRAS Rocket 4.2 18:10:51 10° SSE 18:16:25 71° ENE 18:22:02 10° NNW
Cosmos 2297 Rocket 2.1 18:11:55 10° SSW 18:17:35 84° ESE 18:23:17 10° NNE
Tiangong 0.0 18:16:42 10° SSW 18:18:45 16° SSE 18:18:49 16° SSE
Cosmos 1025 Rocket 4.2 18:15:45 10° SSW 18:19:52 44° WNW 18:24:02 10° N
Cosmos 836 Rocket 4.4 18:15:18 10° SSW 18:20:32 71° ESE 18:25:49 10° NNE
Resurs 01 Rocket 1.6 18:17:59 10° SSE 18:22:22 83° WSW 18:26:49 10° NNW
Orbus 7S? 4.1 18:13:46 10° WNW 18:22:42 78° NNE 18:24:45 33° ESE
Cosmos 2150 Rocket 3.9 18:18:08 10° NNW 18:23:17 65° ENE 18:27:13 17° SE
Cosmos 2298 Rocket 4.0 18:20:22 10° NNW 18:25:39 65° ENE 18:29:31 18° SE
Cosmos 2344 3.9 18:22:52 10° S 18:30:06 39° ESE 18:32:55 28° ENE
NOSS 3-4 (A) 3.8 18:24:14 10° NW 18:30:58 90° NE 18:37:51 15° SE
NOSS 3-4 (C) 3.8 18:24:30 10° NW 18:31:15 89° NE 18:38:02 15° SE
Cosmos 1782 3.1 18:28:57 10° N 18:31:36 41° NNE 18:31:36 41° NNE
BREEZE-M DEB (TANK) 4.4 18:08:39 10° WSW 18:33:21 71° S 18:36:50 32° E
CRYOSAT 2 4.4 18:30:56 10° N 18:35:51 79° W 18:40:43 10° SSW
Helios 1A Rocket 4.1 18:39:28 22° S 18:39:28 22° S 18:40:48 10° S
CZ-4B R/B 3.7 18:43:54 65° NE 18:43:54 65° NE 18:47:35 10° N
Lacrosse 5 rocket 2.7 18:41:39 10° WNW 18:44:33 23° N 18:44:56 22° N
PAYLOAD B 4.5 18:45:53 43° E 18:46:28 45° ENE 18:51:46 10° N
Cosmos 2263 Rocket 2.8 18:42:27 10° S 18:46:40 37° SE 18:46:40 37° SE
ATLAS 2AS CENTAUR R/B 4.3 18:42:31 10° NW 18:47:49 23° N 18:51:31 15° NE
Terra 3.5 18:51:39 19° NNE 18:51:39 19° NNE 18:53:21 10° N
SJ-6B 3.2 18:46:43 14° S 18:49:34 51° W 18:52:57 10° NNW
Cosmos 2237 Rocket 3.2 18:46:00 10° NW 18:51:24 46° WSW 18:56:47 10° S
Cosmos 44 Rocket 3.3 18:56:02 10° SW 19:00:57 82° NW 19:02:15 51° NNE
ERS-1 Rocket 4.0 19:04:25 31° NNE 19:04:25 31° NNE 19:07:22 10° N
USA 267 3.9 18:59:48 28° NE 19:02:52 46° N 19:09:02 10° W
Meteor 1-31 Rocket 4.4 19:06:44 24° NNW 19:06:44 24° NNW 19:08:16 10° NNW
Cosmos 1816 Rocket 4.4 18:58:50 10° S 19:04:59 89° W 19:11:15 10° N
Cosmos 2034 Rocket 3.9 19:02:49 10° N 19:09:02 89° E 19:13:44 18° S
ADEOS 4.1 19:12:55 45° NNE 19:12:55 45° NNE 19:16:45 10° N
Cosmos 1544 Rocket 4.2 19:11:14 10° NNW 19:14:21 46° NNW 19:14:21 46° NNW
Cosmos 2227 Rocket 2.2 19:11:08 10° SSW 19:16:46 80° WNW 19:18:49 41° NNE
SL-16 R/B 2.0 19:11:05 10° NNW 19:16:47 88° ENE 19:17:18 75° SSE
Cosmos 1634 Rocket 4.0 19:11:08 10° N 19:17:03 60° ENE 19:17:03 60° ENE
Cosmos 1975 Rocket 4.3 19:18:09 10° SW 19:22:15 40° WNW 19:26:22 10° N
ARIANE 6 FM1 Upper Stage 4.2 19:18:39 10° NW 19:20:45 30° NNW 19:20:45 30° NNW
CZ-4 R/B 3.7 19:33:01 16° NNW 19:33:01 16° NNW 19:33:56 10° NNW
CZ-4C R/B 3.8 19:28:59 10° WNW 19:33:03 25° NNW 19:35:03 21° N
Gbstr 26 Del rocket 4.5 19:31:40 10° SW 19:37:44 57° S 19:37:44 57° S
CZ-4B R/B 3.8 19:40:18 48° NNW 19:40:18 48° NNW 19:44:03 10° NNW
SPOT 5 3.8 19:39:23 43° WSW 19:40:04 46° W 19:44:57 10° NNW
Cosmos 2297 Rocket 4.3 19:57:55 10° W 20:02:20 23° NW 20:06:06 13° N
Cosmos 1943 4.4 20:00:10 10° NNW 20:03:25 36° NNW 20:03:25 36° NNW
Terra 4.4 20:30:15 15° NNW 20:30:15 15° NNW 20:31:09 10° NNW
Cosmos 2263 Rocket 4.2 20:26:16 10° WSW 20:28:28 22° WSW 20:28:28 22° WSW
ATLAS 2AS CENTAUR R/B 4.3 20:35:03 10° NW 20:38:56 26° N 20:38:56 26° N
Cosmos 2344 4.1 20:36:49 10° WSW 20:43:00 50° WNW 20:43:00 50° WNW
USA 267 4.4 20:47:08 37° NNW 20:47:08 37° NNW 20:51:23 10° WNW
